Temp_Advection
nan nan nan nan nan nan nan nan nan nan nan nan nan nan nan nan nan nan nan nan nan nan
nan 1 1 2 3 2 2 -0 -0 -1 -0 -0 0 0 0 0 0 0 1 0 0 nan
nan 0 1 2 2 0 0 1 -0 0 0 0 0 0 0 1 0 1 1 1 1 nan
nan 1 1 1 0 -0 -0 1 0 0 -0 0 0 0 0 1 1 0 0 0 0 nan
nan 1 1 0 -0 -0 0 -0 0 0 1 1 1 1 1 0 0 0 0 0 1 nan
nan 1 0 0 1 0 0 -1 1 1 1 1 1 1 1 1 1 1 1 1 0 nan
nan 0 0 1 0 1 -0 0 0 0 1 1 1 0 1 1 1 1 1 0 0 nan
nan 0 1 0 -0 -0 -0 0 0 1 1 1 2 1 1 1 0 0 0 -0 0 nan
nan 0 0 -0 -0 -0 0 -0 1 1 1 1 1 1 1 0 0 0 -0 0 0 nan
nan -0 -1 -0 -0 0 0 0 0 1 1 1 0 0 1 0 0 0 0 0 0 nan
nan -0 -1 0 0 0 0 1 0 0 0 1 0 0 -0 0 0 0 0 0 0 nan
nan 0 0 -0 0 1 1 1 1 0 0 0 -0 0 0 0 0 0 0 0 0 nan
nan 1 0 0 0 1 1 0 0 0 0 -0 -0 -0 0 0 0 0 0 0 0 nan
nan nan nan nan nan nan nan nan nan nan nan nan nan nan nan nan nan nan nan nan nan nan
Wind_Speed
29 24 33 38 43 41 43 46 42 36 32 29 25 23 24 25 24 24 25 25 22 20
25 32 35 37 41 40 43 45 38 34 31 29 27 27 27 27 27 25 24 24 19 16
23 30 30 36 40 39 40 40 36 34 32 31 31 31 29 27 24 24 23 20 19 17
28 31 32 35 38 40 40 36 34 33 32 30 30 29 28 27 25 24 23 19 15 14
22 27 31 31 39 39 39 38 36 34 31 31 30 28 28 29 26 23 20 19 16 13
22 23 31 37 36 35 36 35 34 33 32 30 27 26 26 25 24 22 17 14 12 9
22 31 35 32 31 34 33 31 30 29 27 28 29 29 27 24 20 16 14 11 10 10
28 31 29 31 33 31 33 35 32 30 30 30 28 25 20 18 14 12 12 13 10 8
32 32 28 29 30 32 29 30 31 30 29 29 25 20 19 17 17 16 12 11 10 7
31 34 33 32 26 22 23 25 30 30 28 25 24 22 20 18 16 14 12 9 6 5
30 33 41 30 32 27 27 29 29 29 25 24 24 22 19 17 14 12 10 8 7 3
28 37 38 29 28 34 33 34 34 28 28 26 24 21 17 15 13 12 10 7 3 2
29 33 38 36 39 30 34 38 34 31 25 24 22 18 15 14 12 10 7 6 3 0
25 31 36 39 39 39 40 31 31 30 26 22 19 18 15 13 10 8 5 3 1 1
Wind_Direction
232 232 233 224 211 209 200 190 186 188 182 183 186 192 196 199 197 198 201 205 207 212
234 232 228 218 212 199 192 192 185 183 181 184 182 193 195 197 196 194 195 200 198 196
237 229 224 222 202 191 187 189 187 183 183 184 186 189 191 192 192 190 180 180 181 182
227 224 220 210 194 187 188 176 185 182 182 185 185 184 188 186 180 182 176 174 182 187
231 221 209 200 189 186 184 179 185 184 188 188 187 183 184 177 171 177 179 182 190 194
217 199 181 179 181 177 177 183 186 189 185 182 179 174 172 175 173 178 180 183 179 169
200 183 185 177 178 174 180 180 189 186 182 176 174 172 171 174 178 189 182 166 177 184
187 189 177 178 176 177 187 185 184 177 172 172 169 171 177 199 191 178 164 182 181 172
190 182 181 184 183 184 177 176 175 171 170 168 175 186 171 160 149 163 177 180 174 168
193 180 183 188 181 168 172 184 174 167 172 170 173 163 144 150 155 168 169 173 167 172
195 189 179 176 182 182 182 174 170 167 169 175 150 152 159 156 161 165 165 172 178 173
196 185 171 176 180 183 169 166 163 167 162 145 157 162 164 156 161 167 167 168 160 186
182 183 178 180 170 173 170 163 166 157 151 163 158 156 155 158 165 163 163 170 176 356
174 171 171 171 169 167 160 167 152 150 159 160 162 156 160 158 157 162 161 151 114 335
Height
1443 1447 1451 1453 1457 1460 1465 1471 1476 1487 1488 1495 1502 1506 1509 1514 1517 1520 1524 1529 1530 1532
1439 1441 1444 1449 1452 1458 1464 1470 1476 1482 1488 1495 1497 1503 1507 1511 1514 1518 1522 1526 1528 1532
1435 1438 1441 1445 1448 1455 1461 1469 1476 1481 1486 1490 1495 1501 1504 1509 1514 1519 1520 1524 1526 1528
1433 1435 1438 1442 1447 1452 1459 1467 1476 1481 1485 1490 1494 1497 1503 1508 1511 1518 1518 1522 1528 1528
1431 1433 1438 1440 1446 1451 1458 1468 1473 1481 1485 1489 1494 1497 1503 1507 1511 1515 1518 1521 1525 1528
1430 1433 1438 1442 1447 1452 1461 1467 1475 1480 1485 1489 1495 1500 1504 1508 1512 1517 1519 1522 1525 1527
1431 1434 1437 1443 1449 1455 1463 1469 1475 1481 1485 1490 1496 1500 1504 1510 1514 1516 1518 1522 1526 1526
1430 1433 1438 1443 1452 1457 1463 1469 1475 1479 1485 1492 1497 1501 1507 1510 1512 1516 1520 1524 1525 1524
1430 1432 1440 1446 1452 1460 1465 1470 1475 1480 1486 1492 1498 1504 1506 1508 1512 1516 1521 1524 1524 1523
1429 1433 1440 1447 1454 1459 1464 1471 1476 1481 1488 1493 1498 1502 1506 1509 1512 1517 1519 1523 1524 1524
1429 1433 1440 1446 1453 1459 1464 1470 1477 1483 1488 1493 1498 1503 1508 1509 1512 1517 1520 1523 1524 1524
1429 1434 1440 1446 1452 1458 1464 1472 1478 1484 1489 1495 1500 1505 1508 1507 1513 1518 1520 1522 1523 1524
1432 1436 1441 1447 1453 1460 1467 1473 1479 1484 1493 1498 1501 1505 1507 1511 1515 1518 1520 1522 1522 1521
1436 1440 1445 1449 1454 1460 1467 1475 1482 1488 1494 1498 1503 1505 1510 1512 1514 1517 1519 1519 1519 1520